Terminal Aerodrome Forecast
Issued by NWS Chicago, IL

Home | Current Version | Previous Version | Graphics & Text | Print | Product List | Glossary On
Versions: 1 2 3 4 5 6 7 8 9 10 11 12 13 14 15 16 17 18 19 20 21 22 23 24 25 26 27 28 29 30 31 32
000
FTUS43 KLOT 221400 AAA
TAFRFD
TAF AMD
KRFD 221406Z 2214/2312 19011KT 1SM -DZ OVC005
      TEMPO 2214/2216 1/2SM FG OVC003
     FM221700 22011KT 3SM -DZ BR OVC005
     FM222000 20012KT 5SM -DZ BR OVC007
     FM230200 20012KT 4SM BR OVC004=

USA.gov is the U.S. government's official web portal to all federal, state and local government web resources and services.